Simultaneous Nadir Overpasses (SNOs) Predictions

Prediction of SNOs between GOES-16 and NOAA-20 Satellite Orbit:

Table of predicted SNOs for the next 14.0 days since TLE Epoch: 8/1/2025
Index Date Time (GOES-16) GOES-16 Lat,Lon NOAA-20 Lat,Lon Distance(km) Time Diff (sec)
1 08/01/2025 20:17:02 0.03,-104.74 0.41,-102.94 204.07 80
2 08/03/2025 08:38:51 -0.04,-104.73 0.71,-108.22 397.22 80
3 08/04/2025 08:17:25 -0.04,-104.73 -0.25,-103.68 119.17 80
4 08/05/2025 20:39:23 0.05,-104.73 -0.89,-108.99 484.70 80
5 08/06/2025 20:23:18 0.05,-104.73 0.13,-104.46 31.87 80
6 08/09/2025 08:26:20 -0.06,-104.72 0.07,-105.18 53.03 80
7 08/10/2025 08:04:55 -0.05,-104.72 -0.95,-100.65 463.53 80
8 08/11/2025 20:26:52 0.06,-104.73 -0.24,-105.95 140.20 80
9 08/12/2025 20:10:47 0.06,-104.73 0.79,-101.42 376.62 80
10 08/14/2025 08:32:35 -0.06,-104.73 0.38,-106.69 224.14 80
11 08/15/2025 08:11:10 -0.06,-104.72 -0.65,-102.16 292.21 80
